Location: Berkeley
(37.8716°N, 122.2727°W)
Time: 23:06:38
(UTC-07:00)

Envisat - Visible Passes

Search period start: 20 August 2018 00:00
Search period end: 30 August 2018 00:00
Orbit: 764 x 766 km, 98.2° (Epoch: 20 August)

Date Brightness Start Highest point End Pass type
(mag) Time Alt. Az. Time Alt. Az. Time Alt. Az.
20 Aug 3.7 20:37:47 10° S 20:42:45 57° W 20:47:46 10° NNW visible
21 Aug 5.8 21:43:02 10° WSW 21:45:27 13° W 21:47:53 10° WNW visible
22 Aug 4.8 21:03:57 10° SSW 21:08:25 31° W 21:12:55 10° NW visible
23 Aug 3.3 20:26:31 10° S 20:31:34 73° WSW 20:36:40 10° NNW visible
24 Aug 5.6 21:30:52 10° SW 21:34:10 17° W 21:37:30 10° NW visible
25 Aug 4.4 20:52:28 10° SSW 20:57:12 40° W 21:01:58 10° NNW visible
26 Aug 3.0 20:15:20 10° SSE 20:20:24 88° ENE 20:25:31 10° NNW visible
27 Aug 5.3 21:19:00 10° SW 21:22:55 22° W 21:26:51 10° NW visible
28 Aug 3.9 20:41:04 10° S 20:46:00 51° W 20:50:57 10° NNW visible
29 Aug 3.0 20:04:14 10° SSE 20:09:15 69° ENE 20:14:19 10° N visible
29 Aug 5.9 21:46:50 10° WSW 21:48:43 12° W 21:50:37 10° WNW visible
